Location: Mount Tamalpais State Park
(37.9108°N, 122.6128°W)
Time: 04:03:53
(UTC-07:00)

Daily predictions for brighter satellites

Satellite Brightness Start Highest point End
(mag) Time Altitude Azimuth Time Altitude Azimuth Time Altitude Azimuth
Cosmos 2082 Rocket 4.1 00:02:44 11° WSW 00:07:04 25° WNW 00:11:39 10° N
Cosmos 2251 Rocket 4.4 00:09:29 41° NE 00:09:29 41° NE 00:13:15 10° NNE
CZ-2C R/B 3.4 00:07:38 10° NNE 00:12:02 45° ENE 00:12:02 45° ENE
SeaSat 1 3.3 00:19:51 44° NE 00:19:51 44° NE 00:24:04 10° NNW
Terra 3.9 00:21:22 18° W 00:21:22 18° W 00:24:13 10° NW
USA 267 3.3 00:16:44 10° NE 00:23:15 73° NW 00:25:23 45° WSW
Cosmos 1697 Rocket 4.2 00:26:15 10° NW 00:30:07 25° W 00:30:07 25° W
NOSS 3-1 (C) 4.3 00:25:03 10° NNW 00:32:40 64° NE 00:34:45 50° ESE
Cosmos 1934 Rocket 3.9 00:29:26 10° N 00:35:40 84° NW 00:35:40 84° NW
SL-16 R/B 2.5 00:30:18 10° NNW 00:35:24 62° NNE 00:35:24 62° NNE
Cosmos 1953 4.4 00:32:28 10° NNW 00:34:28 25° NW 00:34:28 25° NW
Lacrosse 5 3.2 00:40:43 33° NE 00:40:43 33° NE 00:43:29 10° NE
Meteor 2-5 Rocket 3.9 00:56:18 73° NNW 00:56:18 73° NNW 01:01:44 10° N
USA 234 4.2 00:52:05 20° E 00:56:14 42° NNE 01:02:18 10° NW
USA 229 DEB 4.3 00:51:13 10° NW 00:57:24 44° WSW 00:57:24 44° WSW
USA 229 4.3 00:51:19 10° NW 00:57:31 45° WSW 00:57:31 45° WSW
Lacrosse 5 rocket 3.1 00:58:05 10° NNW 01:01:39 35° NNE 01:01:39 35° NNE
NOSS 3-1 (A) 4.1 00:57:18 10° NNW 01:05:02 76° NE 01:06:48 58° ESE
CZ-2C R/B 3.9 01:10:34 45° WNW 01:10:34 45° WNW 01:14:56 10° NNW
COSMOS 2428 4.4 01:10:02 10° N 01:14:46 26° ENE 01:16:27 22° E
ALOS 2 4.5 01:17:35 25° NW 01:17:35 25° NW 01:19:41 10° NNW
Cosmos 2360 Rocket 2.6 01:12:20 10° NNW 01:17:33 56° NE 01:17:33 56° NE
Cosmos 1980 Rocket 4.3 01:14:56 10° WNW 01:16:59 15° W 01:16:59 15° W
ATLAS CENTAUR R/B 4.0 01:15:04 10° NW 01:15:34 13° NW 01:15:34 13° NW
Cosmos 1727 Rocket 4.2 01:20:50 62° WNW 01:20:50 62° WNW 01:26:46 10° N
Cosmos 2322 Rocket 3.3 01:23:33 10° NW 01:27:23 35° WNW 01:27:23 35° WNW
Meteor 1-24 Rocket 4.2 01:39:57 56° WNW 01:39:57 56° WNW 01:45:33 10° N
Cosmos 1000 Rocket 4.4 01:41:01 85° NE 01:41:01 85° NE 01:47:13 10° N
H-2A R/B 4.0 01:39:06 10° NNE 01:41:40 35° NNE 01:41:40 35° NNE
Cosmos 2333 Rocket 4.2 01:43:00 10° N 01:47:26 22° NE 01:50:57 13° E
Cosmos 1992 Rocket 4.4 01:44:13 10° NNW 01:48:34 59° NNE 01:48:34 59° NNE
Cosmos 2173 Rocket 3.9 01:44:28 10° N 01:50:15 79° NW 01:50:15 79° NW
Cosmos 2297 Rocket 4.2 01:56:55 16° E 01:57:03 16° E 02:00:26 10° ENE
Cosmos 2219 Rocket 3.5 01:57:04 10° N 02:02:16 35° ENE 02:04:22 27° E
ISS -0.3 02:10:34 10° N 02:12:00 12° NNE 02:13:27 10° NE
Cosmos 2221 4.2 02:08:41 10° NNW 02:10:53 27° NW 02:10:53 27° NW
Cosmos 1459 Rocket 4.3 02:08:08 10° NNW 02:14:06 52° W 02:14:06 52° W
Cosmos 1726 4.1 02:13:54 10° N 02:16:04 28° NNE 02:16:04 28° NNE
Cosmos 2237 Rocket 4.0 02:14:18 10° N 02:19:05 27° ENE 02:23:26 12° ESE
SL-16 R/B 4.4 02:16:17 10° WNW 02:17:15 12° WNW 02:17:15 12° WNW
Lacrosse 5 3.9 02:19:52 17° WNW 02:21:53 22° NNW 02:25:47 10° NNE
Cosmos 1864 Rocket 4.4 02:16:03 10° N 02:22:22 87° E 02:22:56 76° SSE
NPP 4.5 02:19:28 10° NNE 02:24:31 39° E 02:24:51 39° ESE
Cosmos 1802 Rocket 4.4 02:20:52 10° NNW 02:26:39 48° W 02:26:39 48° W
SL-8 R/B 4.2 02:27:35 57° N 02:27:35 57° N 02:31:52 10° NE
SL-16 R/B 4.3 02:26:26 10° ESE 02:31:27 27° ENE 02:36:30 10° N
Cosmos 2227 Rocket 2.7 02:33:48 46° ESE 02:34:08 46° ESE 02:39:32 10° NE
Cosmos 2016 Rocket 4.3 02:28:37 10° NNW 02:34:45 51° W 02:34:49 51° W
USA 234 3.3 02:39:22 57° WSW 02:39:22 57° WSW 02:45:31 10° NW
Cosmos 1140 Rocket 3.7 02:41:38 58° ESE 02:41:45 58° ESE 02:46:53 10° NNE
SL-08 R/B 4.0 02:45:31 44° ESE 02:46:32 52° ENE 02:51:21 10° N
Cosmos 2151 3.7 02:47:03 49° ENE 02:47:03 49° ENE 02:50:42 10° NNE
Meteor 2-10 4.1 02:42:45 10° N 02:47:52 70° E 02:48:27 64° ESE
NOSS 2-1 (D) 4.2 02:51:12 45° ENE 02:51:12 45° ENE 02:54:16 10° NE
NOSS 2-1 (C) 4.2 02:51:22 44° ENE 02:51:22 44° ENE 02:54:23 10° NE
Cosmos 1328 Rocket 4.0 02:47:29 10° N 02:51:07 57° NNW 02:51:07 57° NNW
Resurs 1-4 Rocket 3.4 02:48:03 10° NE 02:52:44 31° E 02:54:23 26° SE
Cosmos 2219 4.0 02:54:56 35° WNW 02:55:37 36° WNW 03:00:48 10° N
ADEOS Rocket 4.1 02:48:35 10° NNE 02:55:52 51° E 02:59:38 30° SSE
ATLAS 2AS CENTAUR R/B 2.9 02:48:11 10° NNW 02:56:13 89° WSW 03:01:01 25° SSE
AQUA 3.9 02:52:04 10° NNE 02:56:48 63° E 02:57:04 62° ESE
Cosmos 2228 Rocket 3.4 02:52:55 10° NNW 02:56:43 59° NW 02:56:43 59° NW
COSMOS 2428 3.3 02:53:47 10° NW 02:58:26 42° W 02:58:26 42° W
Cosmos 1151 Rocket 3.2 02:55:38 10° N 02:59:54 68° ENE 02:59:54 68° ENE
Meteor 2-2 Rocket 4.1 02:54:35 10° NNW 03:00:10 65° W 03:00:30 64° WSW
Cosmos 1455 4.2 02:57:54 10° NNE 03:01:05 24° ENE 03:02:20 20° ESE
Cosmos 2360 Rocket 4.2 02:57:45 10° WNW 02:59:17 15° WNW 02:59:17 15° WNW
NOSS 3-3 (A) 4.1 03:00:10 52° WSW 03:01:32 66° NW 03:08:08 10° NNE
NOSS 3-3 (C) 4.1 03:00:15 52° WSW 03:01:38 67° NW 03:08:14 10° NNE
Cosmos 2082 3.7 03:03:00 59° SSE 03:03:55 72° ESE 03:09:31 10° NNE
Cosmos 1447 Rocket 4.5 03:04:55 55° SW 03:06:02 65° W 03:12:17 10° N
CZ-2D R/B 3.0 03:02:48 10° NNE 03:07:43 41° E 03:09:26 32° SE
Meteor 1-11 4.1 03:07:22 60° S 03:08:29 89° ESE 03:14:16 10° N
CBERS-1 3.8 03:04:12 10° NNE 03:09:20 86° WNW 03:10:00 68° SSW
IRS-P3 Rocket 4.4 03:05:18 10° N 03:10:32 77° WNW 03:11:15 65° SW
Cosmos 1023 Rocket 4.4 03:10:19 66° WSW 03:10:53 74° WNW 03:16:08 10° NNE
Meteor 1-27 4.3 03:05:35 10° N 03:11:25 78° E 03:13:36 40° SSE
Cosmos 1954 Rocket 4.1 03:11:25 55° W 03:11:58 58° WNW 03:17:09 10° N
NOSS 2-1 (E) 3.4 03:13:33 70° N 03:13:33 70° N 03:17:23 10° NNE
Cosmos 2233 Rocket 4.1 03:10:28 10° NNW 03:16:37 55° W 03:17:50 48° SW
ARIANE 5 R/B 3.2 03:12:35 10° NNE 03:17:29 47° E 03:19:11 34° SSE
GPS 2-04 Rocket1 4.0 03:20:18 31° ESE 03:20:18 31° ESE 03:22:41 10° ESE
Cosmos 1703 3.2 03:20:33 80° NE 03:20:33 80° NE 03:24:18 10° N
IRS-1C 4.0 03:18:32 10° N 03:23:54 82° WNW 03:25:13 53° SSW
Cosmos 1626 2.2 03:24:32 73° N 03:24:32 73° N 03:27:58 10° N
Cosmos 1072 Rocket 4.4 03:20:30 10° N 03:26:40 84° E 03:29:52 31° S
Cosmos 2333 Rocket 2.3 03:26:28 10° NNW 03:31:59 51° WSW 03:32:52 46° SW
Cosmos 2058 3.4 03:37:40 42° WNW 03:37:40 42° WNW 03:41:31 10° N
Cosmos 2297 Rocket 2.3 03:38:44 42° SW 03:40:29 61° WNW 03:46:06 10° NNE
UNKNOWN OBJECT B 4.0 03:38:34 10° NNE 03:42:20 38° E 03:44:01 25° SSE
Cosmos 1980 3.8 03:38:38 10° NNW 03:44:10 54° WSW 03:46:07 37° SSW
Cosmos 2219 Rocket 3.0 03:41:11 10° NW 03:46:02 30° WSW 03:46:02 30° WSW
Cosmos 1464 Rocket 3.9 03:41:36 10° N 03:47:43 72° W 03:51:06 28° S
NOSS 0 Rocket 4.3 03:42:50 10° NW 03:48:36 42° WSW 03:50:19 34° SW
Cosmos 1805 Rocket 3.5 03:47:45 47° SSW 03:49:00 81° W 03:53:28 10° N
ISS -3.2 03:45:51 10° NW 03:49:05 55° NE 03:52:18 10° ESE
ATLAS 3B CENTAUR R/B 3.6 03:33:38 10° W 03:49:14 46° SSW 03:55:08 10° ESE
COBE Rocket 3.8 03:47:12 10° N 03:51:50 65° WNW 03:53:17 41° SW
Spot 4 Rocket 4.1 03:46:50 10° N 03:51:56 64° WNW 03:53:52 37° SW
BREEZE-M DEB 3.1 03:50:23 34° W 03:51:58 58° NW 03:54:26 10° NE
Cosmos 1241 Rocket 4.4 03:49:21 10° NNW 03:55:50 90° W 04:02:08 10° SSE
DELTA 2 R/B (1) 3.5 03:55:02 32° WSW 03:57:41 82° SSE 04:03:15 10° ENE
Cosmos 2208 Rocket 3.9 03:52:36 10° NNW 03:57:48 79° WSW 04:02:13 15° SSE
APEX 4.5 03:55:56 30° SSW 03:59:08 90° WNW 04:06:22 10° NNE
Cosmos 2237 Rocket 2.6 03:58:01 10° NW 04:03:12 39° WSW 04:05:10 29° SSW
SL-16 R/B 2.2 03:57:53 10° NNW 04:03:36 84° ENE 04:09:16 10° SSE
Okean O Rocket 4.2 04:01:30 10° NE 04:04:14 16° E 04:06:57 10° SE
Lacrosse 4 Rocket 1.4 04:05:12 34° SSW 04:06:52 74° ESE 04:11:03 10° NNE
IRS-1D 3.9 04:02:36 10° N 04:07:46 51° WNW 04:10:16 28° SW
ATLAS 5 CENTAUR R/B 4.1 04:08:39 10° SSE 04:11:26 16° ESE 04:14:20 10° ENE
Aureole 2 Rocket 4.3 04:11:28 10° NW 04:14:04 21° W 04:14:04 21° W
SL-16 R/B 2.8 04:11:08 22° SSW 04:14:46 45° W 04:20:40 10° NNW
Cosmos 1470 Rocket 4.2 04:12:58 13° SSE 04:16:43 51° E 04:20:54 10° NNE
Cosmos 1633 Rocket 3.0 04:15:40 27° SSW 04:17:59 70° W 04:22:22 10° N
Cosmos 2227 Rocket 3.6 04:15:37 17° W 04:18:24 24° WNW 04:22:57 10° N
UNK 4.5 04:19:04 27° SW 04:20:26 32° W 04:24:35 10° NNW
MOZ.5/SAFIR/RUBIN 5/SL-8 3.7 04:15:49 10° SSE 04:20:34 84° WSW 04:25:22 10° NNW
Sich 1 3.2 04:18:35 28° SW 04:20:41 53° W 04:24:59 10° N
CZ-2D R/B 3.4 04:20:31 10° N 04:24:33 73° WNW 04:27:08 22° SSW
Cosmos 1400 Rocket 4.2 04:24:48 10° SSE 04:28:23 36° E 04:32:00 10° NNE
Cosmos 1763 Rocket 4.5 04:24:40 10° N 04:29:45 49° ENE 04:34:44 10° SE
Resurs 1-4 Rocket 3.1 04:27:52 10° N 04:32:28 31° WNW 04:35:28 18° WSW
Cosmos 1455 3.7 04:33:48 10° NW 04:36:35 19° W 04:37:17 18° WSW
CZ-3 R/B 4.0 03:51:41 10° W 04:38:49 61° SSW 04:48:55 10° ESE
ADEOS Rocket 4.4 04:34:33 10° N 04:40:58 33° WNW 04:46:36 14° WSW
Cosmos 2263 Rocket 3.9 04:36:23 10° SSE 04:41:06 29° ESE 04:45:51 10° NE
ORS 1 (USA 231) 4.4 04:39:31 23° WSW 04:41:16 90° WSW 04:44:18 10° ENE
ADEOS II 2.8 04:37:27 10° NNE 04:42:35 52° E 04:47:41 10° S
ATLAS 2AS CENTAUR R/B 4.2 04:41:40 10° WNW 04:46:01 16° WSW 04:48:17 14° WSW
MOS 1-B 4.3 04:40:28 10° NNE 04:46:17 85° WNW 04:52:03 10° SSW
Cosmos 1869 4.3 04:43:49 10° NNW 04:47:19 29° W 04:49:52 15° SW
CZ-2D R/B 3.5 04:43:32 10° NNW 04:47:31 23° WNW 04:50:47 13° WSW
NOSS 3-4 (A) 3.8 04:40:36 10° NW 04:47:43 79° WSW 04:55:18 10° SSE
NOSS 3-4 (C) 3.8 04:40:42 10° NW 04:47:50 79° WSW 04:55:25 10° SSE
CZ-4B R/B 3.8 04:43:44 10° NNE 04:48:03 54° E 04:52:10 10° S
Cosmos 220 Rocket 4.1 04:44:11 12° SSW 04:48:21 84° ESE 04:52:49 10° NNE
Cosmos 371 Rocket 3.4 04:45:00 10° NNW 04:49:50 80° ENE 04:54:37 10° SSE
OAO 3 Rocket 4.4 04:46:45 14° SSW 04:50:07 29° SSE 04:54:22 10° E
In-Cosmos 22 Rocket 4.1 04:45:49 10° S 04:51:08 86° E 04:56:28 10° N
Landsat 4 3.8 04:50:18 10° SSE 04:54:05 82° ENE 04:57:54 10° N
Cosmos 2242 Rocket 3.9 04:51:01 10° NNW 04:55:20 47° W 04:59:39 10° SSW
USA 215 4.5 04:50:11 10° ENE 04:56:02 34° SE 05:01:50 10° S
ARIANE 5 R/B 4.1 04:52:43 10° NNW 04:56:13 19° WNW 04:59:32 11° WSW
GPS 2-04 Rocket1 3.7 04:54:48 12° W 04:58:07 30° SSW 05:01:49 10° SE
SL-24 R/B 4.1 04:54:43 10° N 04:58:26 45° WNW 05:01:46 11° SW
Meteor 2-10 Rocket 3.4 04:59:25 10° NNW 05:04:25 79° W 05:09:27 10° S
Cosmos 1867 4.3 05:03:29 10° S 05:08:44 53° ESE 05:14:03 10° NE
PSLV R/B 3.9 05:05:03 10° N 05:09:03 66° WNW 05:12:55 10° SSW
USA 161 2.9 05:12:28 11° WSW 05:12:46 11° W 05:13:29 10° WNW
BREEZE-M R/B 3.3 05:08:42 10° WSW 05:15:25 69° NW 05:18:48 10° NE
Cosmos 1862 Rocket 3.9 05:12:02 10° NNW 05:16:07 42° W 05:20:11 10° SSW
Cosmos 1933 Rocket 4.5 05:15:59 10° SW 05:19:58 32° WNW 05:24:00 10° NNW
Cosmos 1315 Rocket 2.9 05:17:26 10° S 05:21:30 88° E 05:25:32 10° N
Cosmos 332 Rocket 4.4 05:19:45 10° NW 05:24:07 35° W 05:28:30 10° SSW
Cosmos 1603 3.8 05:20:41 10° NNW 05:26:15 57° WSW 05:31:47 10° S
